Statistiken

Seite 149 von 349 |< · · [146] [147] [148] [149] [150] [151] [152] · · >|

Die meistgelesenen Zitate

Nr. Zitat Pkte. Bew. Aufr. Mails Kom. Datum
7401 Versprechen will ein Halten haben. ... 1.9492 118 3318 2 0 26.08.05 00:00
7402 Fünf Ellen geben ein Paar Handschuh, wenn ... -1.0000 2 3318 0 0 26.08.05 00:00
7403 Wer den Kern essen will, muß erst die Nuß knacken. ... 1.6818 22 3317 1 0 26.08.05 00:00
7404 Begoßne Hunde fürchten das Wasser. ... 0.4000 10 3317 1 0 26.08.05 00:00
7405 Der Schwächste muß das Kreuz tragen. ... 0.5000 8 3317 0 0 26.08.05 00:00
7406 Von leerem Dank Wird die Küche mank. ... -0.6667 3 3317 0 0 26.08.05 00:00
7407 Kommt das Schiff wohl zu Land, so war der Steuermann gut. ... 0.0000 3 3316 1 0 26.08.05 00:00
7408 Ochsen gehen langsam, ziehen aber gut. ... 1.5714 14 3315 0 1 26.08.05 00:00
7409 Heirat der Alten ist ein Ladschreiben an den Totengräber. ... -0.5714 7 3315 0 0 26.08.05 00:00
7410 Kinderzeugen ist keine Zwangsarbeit. ... 1.3750 16 3313 0 0 26.08.05 00:00
7411 Der Winter ist ein unwerter Gast für alte Leute. ... 0.8571 7 3313 0 0 26.08.05 00:00
7412 Der Wind gehört der Herrschaft. ... 0.0000 1 3313 0 0 26.08.05 00:00
7413 Es kommt alles an den Tag, was man unterm Schnee verbirgt. ... 1.7083 24 3312 1 0 26.08.05 00:00
7414 Auf dem Eise ist nicht gut gehen. ... 1.1667 6 3312 1 15 26.08.05 00:00
7415 Menschensinn ist Menschenleben. ... 0.4000 5 3312 0 0 26.08.05 00:00
7416 Krieg hat viel Gaukelei. ... -0.1600 25 3312 0 0 26.08.05 00:00
7417 Jedes Land hat seinen Teufel, der von Deutschland ... 1.0000 3 3310 0 0 26.08.05 00:00
7418 Einer gibt dem andern die Tür in die Hand. ... 0.2857 7 3310 0 1 26.08.05 00:00
7419 Die Narren haben mehr Glück als Recht. ... 1.0000 4 3309 0 0 26.08.05 00:00
7420 Glück ohne Mangel, Nicht ohne Angel. ... -0.2500 4 3309 0 0 26.08.05 00:00
7421 Ein Mann kann keinen Tanz machen. ... 1.4000 5 3308 0 0 26.08.05 00:00
7422 Wenn man vom Wolfe spricht, ist er nicht weit. ... 1.0000 5 3308 0 3 26.08.05 00:00
7423 Miß dein Glück nicht nach fremder Elle. ... 0.8462 13 3307 0 0 26.08.05 00:00
7424 Allzeit gewinnen macht verdächtig, Allzeit ... 0.4000 5 3307 0 0 26.08.05 00:00
7425 Fressen und Saufen macht die Ärzte reich. ... 0.7143 7 3306 2 0 26.08.05 00:00
7426 Nach böser Ernte säe. ... 0.4286 7 3306 0 0 26.08.05 00:00
7427 Schwarz auf weiß behält den Preis. ... -0.2000 5 3306 0 0 26.08.05 00:00
7428 Bei Krämern lernt man kaufen, Bei Säufern ... -0.2000 5 3306 0 14 26.08.05 00:00
7429 Der Weiber Weinen ist heimlich Lachen. ... -0.8000 5 3306 0 1 26.08.05 00:00
7430 Schleicher kommt so weit wie Läufer. ... -1.0714 14 3306 0 4 26.08.05 00:00
7431 Die Eule weiß nichts vom Sonntage. ... 0.2857 7 3305 0 0 26.08.05 00:00
7432 Mancher söffe das ganze Meer, wenn nur ... -0.5000 6 3305 0 0 26.08.05 00:00
7433 Geschehenes zum Besten wende, Daß Schaden ... 1.1250 8 3304 0 0 26.08.05 00:00
7434 Große Bäume geben mehr Schatten als Früchte. ... 1.0000 8 3304 0 0 26.08.05 00:00
7435 Alle wissen guten Rat, Nur nicht, wer ihn nötig hat. ... 1.0000 8 3302 0 6 26.08.05 00:00
7436 Junger Heiliger, alter Teufel. ... 0.1667 6 3302 0 0 26.08.05 00:00
7437 Halt dich rein, acht dich klein, sei ... 1.7500 8 3301 1 0 26.08.05 00:00
7438 Allzu scharf macht schartig. ... 1.6667 6 3301 1 0 26.08.05 00:00
7439 Rab auf dem Dach, Fuchs vor der Tür, hüt' ... 0.0000 3 3301 1 0 26.08.05 00:00
7440 Betrügen ist ehrlicher denn stehlen. ... -1.4000 10 3301 1 0 26.08.05 00:00
7441 Die Rechnung ohne den Wirt machen. ... 1.0000 2 3301 0 0 01.02.06 15:42
7442 Die Narren meinen. ... 0.6667 3 3301 0 0 26.08.05 00:00
7443 Trink Wein, beschert dir Gott Wein. ... -1.1667 6 3301 0 0 26.08.05 00:00
7444 Wen das Glück verderben will, den zärtelt ... 0.2500 12 3299 0 0 26.08.05 00:00
7445 Wer schlecht sieht, soll desto besser tasten. ... 0.0000 1 3299 0 0 26.08.05 00:00
7446 Der Narren Glück ihr Unglück. ... -1.0000 2 3299 0 0 26.08.05 00:00
7447 Arme Leute schlafen für wohl essen. ... 0.0000 3 3297 0 0 26.08.05 00:00
7448 Wenn man gefallen ist, besieht man das Plätzchen zu spät. ... -0.5000 2 3297 0 0 26.08.05 00:00
7449 Gedanken sind zollfrei. ... 0.5714 14 3296 0 1 26.08.05 00:00
7450 Schönheit brockt man nicht in die Schüssel. ... -0.2500 8 3296 0 0 26.08.05 00:00

[Favoriten] [Punkte] [Bewertungen] [Aufrufe] [Mails] [Kommentare] [Datum]

Seite 149 von 349 |< · < · [1] [2] [3] [4] [5] [6] [7] [8] [9] [10] [11] [12] [13] [14] [15] [16] [17] [18] [19] [20] [21] [22] [23] [24] [25] [26] [27] [28] [29] [30] [31] [32] [33] [34] [35] [36] [37] [38] [39] [40] [41] [42] [43] [44] [45] [46] [47] [48] [49] [50] [51] [52] [53] [54] [55] [56] [57] [58] [59] [60] [61] [62] [63] [64] [65] [66] [67] [68] [69] [70] [71] [72] [73] [74] [75] [76] [77] [78] [79] [80] [81] [82] [83] [84] [85] [86] [87] [88] [89] [90] [91] [92] [93] [94] [95] [96] [97] [98] [99] [100] [101] [102] [103] [104] [105] [106] [107] [108] [109] [110] [111] [112] [113] [114] [115] [116] [117] [118] [119] [120] [121] [122] [123] [124] [125] [126] [127] [128] [129] [130] [131] [132] [133] [134] [135] [136] [137] [138] [139] [140] [141] [142] [143] [144] [145] [146] [147] [148] [149] [150] [151] [152] [153] [154] [155] [156] [157] [158] [159] [160] [161] [162] [163] [164] [165] [166] [167] [168] [169] [170] [171] [172] [173] [174] [175] [176] [177] [178] [179] [180] [181] [182] [183] [184] [185] [186] [187] [188] [189] [190] [191] [192] [193] [194] [195] [196] [197] [198] [199] [200] [201] [202] [203] [204] [205] [206] [207] [208] [209] [210] [211] [212] [213] [214] [215] [216] [217] [218] [219] [220] [221] [222] [223] [224] [225] [226] [227] [228] [229] [230] [231] [232] [233] [234] [235] [236] [237] [238] [239] [240] [241] [242] [243] [244] [245] [246] [247] [248] [249] [250] [251] [252] [253] [254] [255] [256] [257] [258] [259] [260] [261] [262] [263] [264] [265] [266] [267] [268] [269] [270] [271] [272] [273] [274] [275] [276] [277] [278] [279] [280] [281] [282] [283] [284] [285] [286] [287] [288] [289] [290] [291] [292] [293] [294] [295] [296] [297] [298] [299] [300] [301] [302] [303] [304] [305] [306] [307] [308] [309] [310] [311] [312] [313] [314] [315] [316] [317] [318] [319] [320] [321] [322] [323] [324] [325] [326] [327] [328] [329] [330] [331] [332] [333] [334] [335] [336] [337] [338] [339] [340] [341] [342] [343] [344] [345] [346] [347] [348] [349] · > · >|

Zuletzt gesucht